TimeCDT,TemperatureF,Dew PointF,Humidity,Sea Level PressureIn,VisibilityMPH,Wind Direction,Wind SpeedMPH,Gust SpeedMPH,PrecipitationIn,Events,Conditions,WindDirDegrees,DateUTC
12:15 AM,69.8,62.6,78,30.10,10.0,Calm,Calm,-,N/A,,Clear,0,2013-09-05 05:15:00
12:35 AM,68.0,62.6,83,30.10,10.0,Calm,Calm,-,N/A,,Clear,0,2013-09-05 05:35:00
12:55 AM,68.0,62.6,83,30.10,10.0,Calm,Calm,-,N/A,,Clear,0,2013-09-05 05:55:00
1:15 AM,68.0,62.6,83,30.10,10.0,Calm,Calm,-,N/A,,Clear,0,2013-09-05 06:15:00
1:35 AM,64.4,60.8,88,30.11,10.0,Calm,Calm,-,N/A,,Clear,0,2013-09-05 06:35:00
1:55 AM,64.4,60.8,88,30.11,10.0,Calm,Calm,-,N/A,,Clear,0,2013-09-05 06:55:00
2:15 AM,64.4,60.8,88,30.11,10.0,Calm,Calm,-,N/A,,Clear,0,2013-09-05 07:15:00
2:35 AM,64.4,60.8,88,30.11,10.0,Calm,Calm,-,N/A,,Clear,0,2013-09-05 07:35:00
2:55 AM,64.4,62.6,94,30.11,10.0,Calm,Calm,-,N/A,,Clear,0,2013-09-05 07:55:00
3:15 AM,68.0,62.6,83,30.11,10.0,East,3.5,-,N/A,,Clear,90,2013-09-05 08:15:00
3:35 AM,66.2,62.6,88,30.10,10.0,Calm,Calm,-,N/A,,Clear,0,2013-09-05 08:35:00
3:55 AM,66.2,62.6,88,30.10,10.0,Calm,Calm,-,N/A,,Clear,0,2013-09-05 08:55:00
4:15 AM,66.2,62.6,88,30.10,10.0,Calm,Calm,-,N/A,,Clear,0,2013-09-05 09:15:00
4:35 AM,64.4,60.8,88,30.10,10.0,Calm,Calm,-,N/A,,Clear,0,2013-09-05 09:35:00
4:55 AM,64.4,60.8,88,30.09,10.0,ESE,3.5,-,N/A,,Clear,120,2013-09-05 09:55:00
5:15 AM,64.4,62.6,94,30.10,10.0,Calm,Calm,-,N/A,,Clear,0,2013-09-05 10:15:00
5:35 AM,62.6,60.8,94,30.10,10.0,Calm,Calm,-,N/A,,Clear,0,2013-09-05 10:35:00
5:55 AM,62.6,60.8,94,30.11,10.0,Calm,Calm,-,N/A,,Clear,0,2013-09-05 10:55:00
6:15 AM,64.4,62.6,94,30.11,10.0,Calm,Calm,-,N/A,,Clear,0,2013-09-05 11:15:00
6:52 AM,64.4,62.6,94,30.12,10.0,Calm,Calm,-,N/A,,Clear,0,2013-09-05 11:52:00
7:50 AM,66.2,64.4,94,30.13,10.0,Calm,Calm,-,N/A,,Partly Cloudy,0,2013-09-05 12:50:00
8:50 AM,75.2,66.2,73,30.07,10.0,SSE,9.2,-,N/A,,Partly Cloudy,150,2013-09-05 13:50:00
9:50 AM,80.6,62.6,54,30.14,10.0,SSE,11.5,-,N/A,,Mostly Cloudy,160,2013-09-05 14:50:00
10:56 AM,84.2,60.8,45,30.15,10.0,South,9.2,-,N/A,,Mostly Cloudy,170,2013-09-05 15:56:00
11:55 AM,89.6,62.6,40,30.15,10.0,SSE,5.8,-,N/A,,Scattered Clouds,150,2013-09-05 16:55:00
12:55 PM,93.2,64.4,38,30.13,10.0,ESE,3.5,-,N/A,,Partly Cloudy,110,2013-09-05 17:55:00
1:50 PM,95.0,64.4,36,30.12,10.0,South,9.2,-,N/A,,Scattered Clouds,170,2013-09-05 18:50:00
2:50 PM,96.8,64.4,34,30.09,10.0,SE,13.8,-,N/A,,Scattered Clouds,140,2013-09-05 19:50:00
3:50 PM,96.8,62.6,32,30.08,10.0,SSE,11.5,-,N/A,,Scattered Clouds,150,2013-09-05 20:50:00
4:50 PM,96.8,62.6,32,30.06,10.0,SE,10.4,17.3,N/A,,Scattered Clouds,140,2013-09-05 21:50:00
5:50 PM,95.0,62.6,34,30.06,10.0,ESE,10.4,-,N/A,,Partly Cloudy,120,2013-09-05 22:50:00
6:50 PM,93.2,60.8,34,30.05,10.0,ESE,13.8,-,N/A,,Partly Cloudy,120,2013-09-05 23:50:00
7:50 PM,86.0,62.6,45,30.05,10.0,ESE,11.5,-,N/A,,Partly Cloudy,110,2013-09-06 00:50:00
8:50 PM,82.4,64.4,54,30.06,10.0,ESE,11.5,-,N/A,,Partly Cloudy,110,2013-09-06 01:50:00
9:15 PM,78.8,64.4,61,30.06,10.0,SE,6.9,-,N/A,,Clear,130,2013-09-06 02:15:00
9:35 PM,78.8,64.4,61,30.07,10.0,SE,6.9,-,N/A,,Clear,130,2013-09-06 02:35:00
9:55 PM,78.8,64.4,61,30.08,10.0,SE,5.8,-,N/A,,Clear,140,2013-09-06 02:55:00
10:15 PM,77.0,64.4,65,30.08,10.0,SE,6.9,-,N/A,,Clear,130,2013-09-06 03:15:00
10:35 PM,77.0,64.4,65,30.09,10.0,SE,5.8,-,N/A,,Clear,140,2013-09-06 03:35:00
10:55 PM,77.0,64.4,65,30.09,10.0,SE,5.8,-,N/A,,Clear,140,2013-09-06 03:55:00
11:15 PM,75.2,64.4,69,30.09,10.0,SSE,4.6,-,N/A,,Clear,150,2013-09-06 04:15:00
11:35 PM,73.4,64.4,73,30.10,10.0,SSE,3.5,-,N/A,,Clear,150,2013-09-06 04:35:00
11:55 PM,73.4,64.4,73,30.09,10.0,SE,4.6,-,N/A,,Clear,140,2013-09-06 04:55:00